Main page
METAR-TAF:

METAR-TAF

Airports :

Conceição do Araguaia Airport

Conceição do Araguaia, Pará, Brazil

latitude: 08-15S, longitude: 049-17W, elevation: 157 m

Current weather observation

The report was made 1 hour and 10 minutes ago, at 15:00 UTC
Wind 4 kt from the North, varying between Northwest and Northeast
Temperature 29°C
Humidity 74%
Pressure 1013 hPa
Visibility 10 km or more
Broken clouds at a height of 2300 ft

METAR: SBAA 211500Z AUTO 35004KT 320V040 9999 BKN023 29/24 Q1013

Time: 13:10 (16:10 UTC)


TAF: missing

Weather observations and forecasts of more than 4000 airports (METAR and TAF reports).

The available stations are represented by yellow and red dots on the map.

Hover mouse over dot to see the name of the station.

Then click to see weather observations and forecasts.

To change the map : click on the green buttons with a black cross to zoom in, on the green button with a dash to zoom out, or on the green arrows for adjacent maps.


METAR-TAF: